This demonstration page uses our WeatherBlox Daily Observations layout. Learn more.

Left ArrowRight Arrow

Hourly Observations for January 8, 2019

Temp ( °F °C ) Dew Point ( °F °C ) Humidity (%) Winds ( mph kmh ) Pressure ( in mb ) Visibility ( mi km ) Precip ( " mm )
12:59 am 00:59 Cloudy 46 7.8 41 5 83 83 Calm 30.21 1023 10 16 0.00 0.00
1:59 am 01:59 Cloudy 46 7.8 41 5 83 83 SW 5 7 30.20 1023 10 16 0.00 0.00
2:59 am 02:59 Mostly Cloudy 46 7.8 41 5 83 83 S 3 6 30.16 1021 10 16 0.00 0.00
3:59 am 03:59 Cloudy 47 8.3 42 5.6 83 83 W 9 15 30.17 1022 10 16 0.00 0.00
4:59 am 04:59 Cloudy with Light Rain 46 7.8 43 6.1 89 89 WNW 6 9 30.16 1021 9 14 0.01 0.25
5:59 am 05:59 Cloudy 46 7.8 42 5.6 86 86 W 5 7 30.16 1022 10 16 0.00 0.03
6:56 am 06:56 Mostly Cloudy 46 8 43 6 87 87 WSW 3 6 30.15 1021 10 16 0.00 0.00
6:59 am 06:59 Mostly Cloudy 46 7.8 42 5.6 86 86 W 3 6 30.15 1021 10 16 0.00 0.00
7:06 am 07:06 Mostly Cloudy 46 7.8 42 5.6 86 86 W 3 6 30.15 1021 10 16 0.00 0.00
7:59 am 07:59 Mostly Cloudy 45 7.2 42 5.6 90 90 S 3 6 30.12 1020 10 16 0.00 0.00
8:59 am 08:59 Mostly Cloudy 48 8.9 43 6.1 83 83 SW 5 7 30.12 1020 10 16 0.00 0.00
9:57 am 09:57 Mostly Cloudy 50 10 45 7 82 82 WSW 7 11 30.12 1020 10 16 0.00 0.00
9:59 am 09:59 Mostly Cloudy 50 10 45 7.2 83 83 WSW 7 11 30.11 1020 10 16 0.00 0.00
10:06 am 10:06 Cloudy 50 10 45 7.2 83 83 W 9 15 30.12 1020 10 16 0.00 0.00
10:59 am 10:59 Cloudy 53 11.7 48 8.9 83 83 SW 7 11 30.08 1019 10 16 0.00 0.00
11:11 am 11:11 Mostly Cloudy 53 11.7 48 8.9 83 83 SSW 8 13 30.06 1018 9 14 0.00 0.00
11:59 am 11:59 Partly Cloudy 57 13.9 50 10 78 78 SSW 7 11 30.01 1016 10 16 0.00 0.00
12:59 pm 12:59 Mostly Sunny 61 16.1 51 10.6 70 70 SSW 9 15 29.96 1014 10 16 0.00 0.00
1:59 pm 13:59 Mostly Cloudy 63 17.2 52 11.1 68 68 SSW 10 17 29.91 1013 10 16 0.00 0.00
2:59 pm 14:59 Mostly Cloudy 62 16.7 51 10.6 67 67 SW 14 22 29.90 1012 10 16 0.00 0.00
3:59 pm 15:59 Mostly Cloudy 63 17.2 51 10.6 65 65 SSW 14 22 29.87 1011 10 16 0.00 0.00
4:59 pm 16:59 Cloudy 62 16.7 50 10 65 65 SSW 12 19 29.84 1011 10 16 0.00 0.00
5:59 pm 17:59 Mostly Cloudy 62 16.7 49 9.4 62 62 SSW 10 17 29.84 1010 10 16 0.00 0.00
6:59 pm 18:59 Mostly Cloudy 61 16.1 48 8.9 63 63 SSW 9 15 29.83 1010 10 16 0.00 0.00
7:59 pm 19:59 Partly Cloudy 61 16.1 47 8.3 60 60 SSW 12 19 29.80 1009 10 16 0.00 0.00
8:59 pm 20:59 Partly Cloudy 61 16.1 46 7.8 58 58 SSW 10 17 29.78 1009 10 16 0.00 0.00
9:59 pm 21:59 Partly Cloudy 62 16.7 47 8.3 58 58 SW 15 24 29.75 1007 10 16 0.00 0.00
10:59 pm 22:59 Mostly Clear 60 15.6 47 8.3 62 62 SW 13 20 29.73 1007 10 16 0.00 0.00
11:59 pm 23:59 Mostly Clear 59 15 48 8.9 67 67 SW 13 20 29.72 1007 10 16 0.00 0.00

Powered by AerisWeather